Flag for Russia Weather past 2 weeks in Samara, Russia

Now
34 °F

Overcast.


Feels Like: 23 °F
Forecast: 31 / 45 °F
Wind: 17 mph from Northwest

Location: Samara


UV Index: 3 (Moderate)

Visibility: N/A


Pressure: 29.86 "Hg

Humidity: 65%

Dew point: 23 °F

Location of SamaraLocation

Historic Weather in Samara

°F

Samara temperature yesterday

Maximum temperature yesterday: 68 °F (at 4:00 PM)
Minimum temperature yesterday: 43 °F (at 4:00 AM)
Average temperature yesterday: 55 °F

Past Weeks' High & Low Weather Summary

 TemperatureHumidityPressure
High68 °F (Apr 23, 4:00 PM)100% (Apr 24, 9:30 AM)30.60 "Hg (Apr 24, 9:30 AM)
Low21 °F (Apr 11, 5:00 AM)13% (Apr 22, 4:30 PM)29.68 "Hg (Apr 24, 2:00 AM)
Average44 °F44%30.24 "Hg
* Reported Apr 9 10:00 PM — Apr 24 10:30 PM, Samara, Weather by CustomWeather, © 2014

Note: Actual official high and low records may vary slightly from our data, if they occured in-between our weather recording intervals... More about our weather records

Advertising

Historic Weather Conditions — Data for Previous 24 hours

 ConditionsComfort  
Time TempWeatherWind HumidityBarometerVisibility
10:30 PM
Apr 24
34 °FOvercast.20 mph65%29.86 "HgN/A
10:00 PM34 °FOvercast.17 mph70%29.86 "HgN/A
9:30 PM34 °FMostly cloudy.17 mph65%29.86 "HgN/A
9:00 PM34 °FMostly cloudy.17 mph70%29.86 "HgN/A
8:30 PM34 °FMostly cloudy.15 mph75%29.83 "HgN/A
8:00 PM36 °FMore clouds than sun.20 mph60%29.83 "HgN/A
7:30 PM36 °FBroken clouds.15 mph60%29.83 "HgN/A
7:00 PM36 °FBroken clouds.17 mph60%29.83 "HgN/A
6:30 PM37 °FBroken clouds.15 mph60%29.83 "HgN/A
6:00 PM36 °FMore clouds than sun.17 mph70%29.80 "HgN/A
5:30 PM37 °FSprinkles. More clouds than sun.20 mph60%29.80 "Hg2 mi
5:00 PM39 °FBroken clouds.15 mph48%29.80 "HgN/A
4:30 PM36 °FSprinkles. Mostly cloudy.17 mph60%29.80 "Hg3 mi
4:00 PM36 °FSprinkles. Mostly cloudy.8 mph70%29.80 "HgN/A
3:30 PM41 °FMore clouds than sun.17 mph53%29.80 "HgN/A
3:00 PM41 °FMore clouds than sun.22 mph53%29.80 "HgN/A
2:30 PM37 °FLight rain. Mostly cloudy.17 mph65%29.80 "Hg2 mi
2:00 PM39 °FMore clouds than sun.22 mph61%29.80 "HgN/A
1:30 PM43 °FMore clouds than sun.13 mph49%29.77 "HgN/A
1:00 PM41 °FCloudy.17 mph53%29.77 "HgN/A
12:30 PM39 °FCloudy.17 mph70%29.77 "HgN/A
12:00 PM39 °FMostly cloudy.17 mph70%29.77 "HgN/A
11:30 AM37 °FMostly cloudy.15 mph75%29.80 "HgN/A
11:00 AM34 °FMostly cloudy.13 mph93%29.80 "HgN/A
10:30 AM34 °FMostly cloudy.13 mph93%29.77 "HgN/A
10:00 AM34 °FMostly cloudy.13 mph93%29.77 "HgN/A
9:30 AM32 °FLight rain. Mostly cloudy.10 mph100%29.77 "HgN/A
9:00 AM32 °FLight rain. Mostly cloudy.10 mph93%29.77 "Hg3 mi
8:30 AM32 °FSnow showers. More clouds than sun.10 mph93%29.77 "Hg1 mi
8:00 AM32 °FSnow showers. More clouds than sun.13 mph93%29.74 "Hg1 mi
7:30 AM32 °FSnow showers. More clouds than sun.13 mph93%29.74 "Hg1 mi
7:00 AM32 °FSnow flurries. More clouds than sun.13 mph93%29.74 "Hg2 mi
6:30 AM32 °FHeavy snow. Dense fog.13 mph87%29.74 "Hg0 mi
6:00 AM36 °FLight rain. Low clouds.13 mph81%29.74 "Hg2 mi
5:30 AM36 °FSprinkles. Mostly cloudy.10 mph87%29.71 "Hg2 mi
5:00 AM37 °FRain showers. Mostly cloudy.15 mph87%29.71 "Hg1 mi
4:30 AM39 °FSprinkles. Mostly cloudy.13 mph87%29.71 "Hg3 mi
4:00 AM41 °FMostly cloudy.15 mph81%29.68 "HgN/A
3:30 AM45 °FSprinkles. Mostly cloudy.10 mph81%29.68 "Hg3 mi
3:00 AM54 °FSprinkles. Mostly cloudy.8 mph58%29.68 "Hg3 mi
2:30 AM52 °FSprinkles. Mostly cloudy.8 mph67%29.68 "Hg2 mi
2:00 AM52 °FMostly cloudy.8 mph67%29.68 "HgN/A
1:30 AM57 °FSprinkles. Mostly cloudy.8 mph48%29.71 "Hg2 mi
1:00 AM57 °FSprinkles. Mostly cloudy.10 mph44%29.71 "Hg2 mi
12:30 AM55 °FMostly cloudy.10 mph47%29.71 "HgN/A
12:00 AM57 °FMostly cloudy.17 mph41%29.71 "HgN/A
11:30 PM
Apr 23
57 °FMostly cloudy.17 mph41%29.74 "HgN/A
11:00 PM59 °FMostly cloudy.17 mph36%29.74 "HgN/A
Weather by CustomWeather, © 2014

See weather overview